Meteo Giornale » Osservazioni meteo Gran Bretagna » Belfast-Harbour

ore: 22:50 - Osservazioni Meteo Belfast-Harbour
Lat. 54° 36' N Lon. 5° 53' W Alt. 5 metri s.l.m.

sereno

15 °C

Sereno

Temp. 24 Ore

14 °C

19 °C

Sud/Sud-Ovest

14.8 Km/h

Dew point 14 °C

Umidità 93 %

Visibilità  10 Km

Il sole sorge alle ore 06:30

Il sole tramonta alle ore 20:16

Data e Ora Cielo e Fenomeni T °C DP °C Um. % Pres. hPa Vis. km Vento km/h
Oggi h: 22:50 sereno Sereno 15 14 93 1015 10 S/SO 14.8
Oggi h: 22:20 sereno Sereno 16 15 93 1015 10 S/SO 13
Oggi h: 21:50 sereno Sereno 16 15 93 1015 10 S/SO 14.8
Oggi h: 21:20 coperto_pioggia Pioggia 16 15 93 1015 10 S/SO 16.7
Oggi h: 20:50 coperto_pioggia Pioggia 16 15 93 1015 10 S/SO 13
Oggi h: 20:20 coperto_pioggia Pioggia 16 15 93 1015 10 SO 14.8
Oggi h: 19:50 nuvoloso_piovaschi Pioggia 16 15 93 1015 8 SO 16.7
Oggi h: 19:20 coperto_pioggia Pioggia 17 15 88 1015 10 O/SO 14.8
Oggi h: 18:50 coperto_pioggia Pioggia 17 15 88 1015 10 SO 14.8
Oggi h: 18:20 coperto_pioggia Pioggia 17 15 88 1015 10 O/SO 13
Oggi h: 17:50 coperto_pioggia Pioggia 17 15 88 1015 10 O/SO 13
Oggi h: 17:20 coperto_pioggia Pioggia 17 15 88 1015 10 SO 14.8
Oggi h: 16:50 coperto_pioggia Pioggia 18 15 82 1015 10 SO 20.3
Oggi h: 16:20 coperto_pioggia Pioggia 18 15 82 1015 10 SO 16.7
Oggi h: 15:50 poco_nuvoloso Poco Nuvoloso 17 15 88 1015 10 SO 18.5
Oggi h: 15:20 coperto_pioggia Pioviggine 17 15 88 1015 10 O/SO 13
Oggi h: 14:50 coperto_pioggia Pioggia 18 15 82 1014 10 SO 13
Oggi h: 14:20 coperto_pioggia Pioggia 18 15 82 1014 8 SO 24
Oggi h: 13:50 coperto_pioggia Pioggia 19 14 72 1014 10 O/SO 14.8
Oggi h: 13:20 nuvoloso Nuvoloso 19 13 68 1014 10 O/SO 20.3
Oggi h: 12:50 sereno Sereno 18 14 77 1014 10 SO 20.3
Oggi h: 12:20 nuvoloso Nuvoloso 17 14 82 1014 10 SO 20.3
Oggi h: 11:50 coperto_pioggia Pioviggine 17 14 82 1014 5 SO 16.7
Oggi h: 11:20 molto_nuvoloso Molto Nuvoloso 17 13 77 1014 10 SO 22.2
Oggi h: 10:50 coperto Coperto 17 13 77 1014 10 SO 24
Oggi h: 10:20 molto_nuvoloso Molto Nuvoloso 17 13 77 1014 10 SO 20.3
Oggi h: 09:50 molto_nuvoloso Molto Nuvoloso 16 13 82 1014 10 SO 24
Oggi h: 09:20 sereno Sereno 16 13 82 1014 10 SO 22.2
Oggi h: 08:50 sereno Sereno 15 12 82 1014 10 SO 24
Oggi h: 08:20 poco_nuvoloso Poco Nuvoloso 15 12 82 1014 10 SO 24
Oggi h: 07:50 nuvoloso Nuvoloso 15 12 82 1014 10 SO 22.2
Oggi h: 07:20 molto_nuvoloso Molto Nuvoloso 14 12 87 1014 10 SO 22.2
Oggi h: 06:50 poco_nuvoloso Poco Nuvoloso 14 12 87 1014 10 SO 20.3
Oggi h: 06:20 nuvoloso Nuvoloso 14 12 87 1014 10 S/SO 18.5
Oggi h: 05:50 nuvoloso Nuvoloso 14 12 87 1014 10 S/SO 18.5
Oggi h: 05:20 molto_nuvoloso Molto Nuvoloso 14 12 87 1014 10 S 14.8
Oggi h: 04:50 coperto Coperto 14 12 87 1014 10 S/SO 16.7
Oggi h: 04:20 coperto Coperto 14 12 87 1015 10 S/SO 14.8
Oggi h: 03:50 molto_nuvoloso Molto Nuvoloso 14 12 87 1015 10 S/SO 14.8
Oggi h: 03:20 poco_nuvoloso Poco Nuvoloso 14 11 82 1015 10 S/SO 16.7
Oggi h: 02:50 sereno Sereno 14 11 82 1015 10 SO 14.8
Oggi h: 02:20 poco_nuvoloso Poco Nuvoloso 14 11 82 1015 10 SO 16.7
Oggi h: 01:50 sereno Sereno 14 11 82 1015 10 S/SO 14.8
Oggi h: 01:20 sereno Sereno 14 11 82 1015 10 S/SO 13
Oggi h: 00:50 sereno Sereno 15 11 76 1015 10 SO 16.7
Oggi h: 00:20 molto_nuvoloso Molto Nuvoloso 15 11 76 1016 10 SO 18.5
Ieri h: 23:50 coperto Coperto 15 11 76 1016 10 S/SO 14.8